Weather History for Ellensburg, WA

Change the Weather History Date:

Tuesday, March 19, 2013

  Actual Average (KYKM) Record (KYKM)
Temperature  
Mean Temperature 38 °F 44 °F  
Max Temperature 52 °F 57 °F 78 °F (1947)
Min Temperature 26 °F 31 °F 14 °F (1965)
Degree Days  
Heating Degree Days 27 21  
Month to date heating degree days 441  
Since 1 July heating degree days 4968  
Cooling Degree Days 0 0  
Month to date cooling degree days 0  
Year to date cooling degree days 0  
Moisture  
Dew Point 26 °F    
Average Humidity 69    
Maximum Humidity 89    
Minimum Humidity 25    
Precipitation  
Precipitation 0.12 in 0.02 in 0.32 in (1961)
Month to date precipitation 0.43  
Year to date precipitation 2.35  
Snow  
Snow 0.00 in 0.00 in 0.00 in (2002)
Month to date snowfall 0.6  
Year to date snowfall 8.5  
Since 1 July snowfall 21.5  
Snow Depth -    
Sea Level Pressure  
Sea Level Pressure 30.00 in    
Wind  
Wind Speed 4 mph (East)    
Max Wind Speed 13 mph    
Max Gust Speed -    
Visibility 7 miles    
Events Rain , Snow    
T = Trace of Precipitation, MM = Missing Value Source: NWS Daily Summary

Daily Weather History Graph

Daily Weather History Graph

Search for Another Location

Airport:

Trip Planner

Search our weather history database for the weather conditions in past years. The results will help you decide how hot, cold, wet, or windy it might be!

Date:

Astronomy

Mar. 19, 2013 Rise Set
Actual Time 7:06 AM PDT 7:13 PM PDT
Civil Twilight 6:36 AM PDT 7:44 PM PDT
Nautical Twilight 6:00 AM PDT 8:20 PM PDT
Astronomical Twilight 5:23 AM PDT 8:56 PM PDT
Moon 11:40 AM PDT (3/19) 2:25 AM PDT (3/19)
Length of Visible Light 13h 08m
Length of Day
12h 07m
Waxing Crescent, 51% of the Moon is Illuminated
Mar 19
Waxing Crescent
Mar 27
Full
Apr 2
Last Quarter
Apr 10
New
Apr 18
First Quarter

Hourly Weather History & Observations

Time (PDT) Temp. Windchill Dew Point Humidity Pressure Visibility Wind Dir Wind Speed Gust Speed Precip Events Conditions
12:53 AM 28.9 °F - 21.9 °F 75% 30.21 in 10.0 mi Calm Calm - N/A   Clear
1:53 AM 30.0 °F 25.2 °F 21.9 °F 72% 30.21 in 10.0 mi NE 4.6 mph - N/A   Clear
2:53 AM 28.0 °F 21.7 °F 19.0 °F 69% 30.20 in 10.0 mi ENE 5.8 mph - N/A   Clear
3:53 AM 27.0 °F 20.5 °F 19.0 °F 72% 30.22 in 10.0 mi East 5.8 mph - N/A   Clear
4:53 AM 27.0 °F 20.5 °F 19.9 °F 75% 30.21 in 10.0 mi NE 5.8 mph - N/A   Clear
5:53 AM 26.1 °F 19.4 °F 19.0 °F 75% 30.23 in 10.0 mi East 5.8 mph - N/A   Clear
6:53 AM 26.1 °F 19.4 °F 19.9 °F 78% 30.24 in 10.0 mi ESE 5.8 mph - N/A   Clear
7:53 AM 28.0 °F 24.2 °F 21.0 °F 75% 30.23 in 10.0 mi East 3.5 mph - N/A   Clear
8:53 AM 32.0 °F - 23.0 °F 69% 30.24 in 10.0 mi Calm Calm - N/A   Clear
9:53 AM 35.1 °F - 25.0 °F 67% 30.24 in 10.0 mi Calm Calm - N/A   Clear
10:53 AM 39.9 °F - 26.1 °F 58% 30.22 in 10.0 mi Calm Calm - N/A   Clear
11:53 AM 43.0 °F - 24.1 °F 47% 30.19 in 10.0 mi Calm Calm - N/A   Scattered Clouds
12:53 PM 46.9 °F - 23.0 °F 39% 30.16 in 10.0 mi SSE 6.9 mph - N/A   Scattered Clouds
1:53 PM 50.0 °F - 16.0 °F 26% 30.12 in 10.0 mi SE 12.7 mph - N/A   Overcast
2:53 PM 50.0 °F - 15.1 °F 25% 30.07 in 10.0 mi SE 11.5 mph - N/A   Overcast
3:53 PM 48.9 °F - 14.0 °F 25% 30.05 in 10.0 mi SE 12.7 mph - N/A   Overcast
4:53 PM 46.9 °F - 17.1 °F 30% 30.01 in 8.0 mi ESE 6.9 mph - N/A   Overcast
5:53 PM 46.0 °F - 19.0 °F 34% 29.98 in 10.0 mi Calm Calm - N/A   Overcast
6:53 PM 45.0 °F - 25.0 °F 46% 29.94 in 10.0 mi Calm Calm - N/A   Overcast
7:53 PM 39.9 °F 33.4 °F 32.0 °F 73% 29.94 in 10.0 mi ENE 10.4 mph - 0.00 in Rain Light Rain
8:02 PM 39.2 °F 32.5 °F 32.0 °F 75% 29.89 in 8.0 mi ENE 10.4 mph - 0.00 in Rain Light Rain
8:45 PM 37.4 °F 32.1 °F 33.8 °F 87% 29.87 in 10.0 mi ENE 6.9 mph - 0.02 in Rain Light Rain
8:53 PM 37.9 °F 34.4 °F 33.1 °F 83% 29.91 in 10.0 mi East 4.6 mph - 0.02 in Rain Light Rain
9:36 PM 37.4 °F 34.9 °F 33.8 °F 87% 29.85 in 8.0 mi ESE 3.5 mph - 0.01 in Rain Light Rain
9:53 PM 36.0 °F 33.3 °F 30.9 °F 82% 29.88 in 2.5 mi ESE 3.5 mph - 0.03 in Snow Light Snow
10:11 PM 35.6 °F - 30.2 °F 81% 29.82 in 1.8 mi Calm Calm - 0.02 in Snow Light Snow
10:25 PM 35.6 °F - 30.2 °F 81% 29.82 in 1.0 mi Calm Calm - 0.04 in Snow Light Snow
10:39 PM 35.6 °F - 30.2 °F 81% 29.80 in 1.0 mi Calm Calm - 0.05 in Snow Light Snow
10:51 PM 33.8 °F - 30.2 °F 87% 29.80 in 1.2 mi Calm Calm - 0.06 in Snow Light Snow
10:53 PM 34.0 °F - 30.9 °F 89% 29.83 in 1.2 mi Calm Calm - 0.06 in Snow Light Snow
11:01 PM 33.8 °F - 30.2 °F 87% 29.79 in 0.8 mi Calm Calm - 0.00 in Snow Light Snow
11:09 PM 33.8 °F - 30.2 °F 87% 29.79 in 0.8 mi Calm Calm - 0.01 in Snow Light Snow
11:19 PM 33.8 °F - 30.2 °F 87% 29.78 in 1.0 mi Calm Calm - 0.01 in Rain Light Rain
11:26 PM 33.8 °F - 30.2 °F 87% 29.77 in 1.0 mi Calm Calm - 0.01 in Snow Light Snow
11:30 PM 33.8 °F 30.8 °F 30.2 °F 87% 29.76 in 1.2 mi ENE 3.5 mph - 0.01 in Snow Light Snow
11:43 PM 35.6 °F - 30.2 °F 81% 29.77 in 3.0 mi Calm Calm - 0.01 in Rain Light Rain
11:53 PM 35.1 °F - 30.9 °F 85% 29.79 in 3.0 mi Calm Calm - 0.01 in   Overcast